CAPE
940 846 400 135 76 138 159 55 7 26 19 60 285 216 159 54 0 0 0 0 0 0 36 37 12 0 0 0 0 0 0 1 7 39 94 208 268 252 132 0 0 0
1031 1026 445 205 148 176 223 111 52 84 72 98 166 165 52 0 0 0 0 0 0 0 0 2 0 0 0 0 0 0 0 0 0 0 0 0 2 0 0 0 0 0
1184 1042 648 382 361 404 239 161 104 73 45 65 166 52 0 0 0 0 0 0 0 0 0 0 0 0 0 0 0 0 0 0 0 0 0 0 0 0 0 0 0 0
1229 1032 794 670 495 282 163 105 31 4 23 42 34 7 0 0 0 0 0 0 0 0 0 0 0 0 0 0 0 0 0 0 0 0 0 0 0 0 0 0 0 0
1191 1092 1012 661 301 210 314 181 6 0 0 0 7 1 0 0 0 0 0 0 0 0 0 0 0 0 0 0 0 0 0 0 0 0 0 0 0 0 0 0 0 0
1242 1123 748 325 264 389 294 127 0 0 0 4 1 0 0 0 0 0 0 0 0 0 0 0 0 0 0 0 0 0 0 0 0 0 0 0 0 0 0 0 0 0
1240 689 281 129 250 311 274 19 3 0 1 1 0 0 0 0 0 0 0 0 0 0 0 0 0 0 0 0 0 0 0 0 0 0 0 0 0 0 0 0 0 0
1058 884 270 361 397 397 193 62 0 0 0 0 0 0 0 0 0 0 0 0 0 0 0 0 0 0 0 0 0 0 0 0 0 0 0 0 0 0 0 0 0 0
1156 1041 719 549 564 418 309 258 77 0 0 0 0 0 0 0 0 0 0 0 0 0 0 0 0 0 0 0 0 0 0 0 0 0 0 0 0 0 0 0 0 0
1334 1148 807 773 675 451 370 274 196 5 0 0 0 0 0 0 0 0 0 0 0 0 0 0 0 0 0 0 0 0 0 0 0 0 0 0 0 0 0 0 0 0
1347 1126 1100 898 836 523 368 310 272 10 0 0 0 0 0 0 0 0 0 0 0 0 0 0 0 0 0 0 0 0 0 0 0 0 0 0 0 0 0 0 0 0
1146 1067 1064 846 745 616 551 443 354 384 13 8 35 0 0 5 0 0 0 0 0 0 0 2 2 1 4 5 9 17 12 5 1 1 1 0 0 0 0 0 0 0
1146 1070 1125 1101 988 864 863 916 698 643 606 0 13 77 8 2 6 0 0 0 0 0 0 0 1 1 4 10 12 55 172 118 219 166 126 129 47 14 2 1 18 9
1310 1271 1043 1070 954 868 797 983 808 758 900 580 74 17 155 88 65 41 10 3 0 0 0 0 1 3 7 23 64 106 289 348 377 442 345 352 353 237 237 182 158 150
1361 1302 1154 1364 862 1137 1164 1027 989 885 902 933 677 39 38 16 18 20 101 100 87 56 10 5 9 11 9 218 279 347 530 609 655 587 701 696 659 534 513 422 343 409
1221 1268 1211 1031 1128 971 757 790 1002 1166 1210 1043 1020 662 54 39 46 62 62 168 316 389 341 588 528 708 1738 173 563 1011 1009 942 1070 1016 894 1094 964 900 982 833 595 597
992 1197 1115 1082 1199 923 817 1004 833 1011 1195 1318 1185 967 763 514 41 51 63 59 338 572 665 1128 1050 1255 736 491 508 735 1068 1206 1213 984 980 960 1023 976 1102 1194 1280 1027
998 974 954 1048 1047 999 968 1065 1130 1179 1340 1454 1407 1382 1270 1186 920 726 641 305 277 818 973 1282 1430 1178 857 670 500 638 814 1283 1051 946 848 922 866 528 754 875 808 613
980 1041 1065 1092 1087 1086 1039 1511 1439 1482 1477 1471 1401 1383 1389 1393 1260 1152 1092 1006 790 790 1021 1231 1231 795 1035 773 170 0 364 501 895 903 725 829 610 609 737 935 639 215
91 446 897 1145 1106 1171 1098 1332 1494 1535 1552 1547 1435 1121 1101 1336 1385 1290 1245 1362 1294 1072 1095 1347 1037 672 804 558 145 0 0 9 320 554 800 971 1034 900 808 759 488 300
0 0 11 166 455 606 802 1003 1376 1508 1604 1453 1272 1322 1193 977 966 949 1129 1130 1092 1125 1252 1223 1254 858 724 589 350 0 99 57 157 468 948 1370 919 509 2 225 290 675
0 0 0 0 0 252 463 451 674 1287 1576 1614 1472 1294 1101 920 845 960 1032 996 1042 1038 1079 1095 1903 932 714 528 456 412 124 97 258 653 1060 1124 663 582 368 198 198 216
0 0 0 0 0 0 1 225 552 1025 1342 1438 1389 1224 1207 1076 1009 892 776 882 799 952 957 970 1403 763 588 470 398 22 14 12 524 602 701 418 529 408 130 10 200 278
0 0 0 0 0 0 1 28 130 267 493 1272 1412 1374 1179 1120 1069 921 912 821 747 886 877 854 1150 701 527 448 355 42 0 451 428 525 373 3 322 141 109 222 0 0
0 0 0 0 0 0 1 10 8 19 73 192 744 1174 1325 1279 1173 1093 1120 1190 1238 1229 1284 1088 1111 916 887 735 461 102 203 503 815 187 42 12 18 117 131 24 0 0
0 0 0 0 0 0 0 0 4 5 42 81 263 389 580 916 1120 1165 1278 1239 1334 1346 1365 1024 840 729 771 546 462 453 449 555 508 86 116 323 52 147 36 37 0 0
Wind_Speed
22 22 21 20 nan 21 21 nan nan nan nan nan 20 20 21 nan nan nan nan nan nan nan nan nan nan nan nan nan nan nan nan nan nan nan nan 22 20 20 19 nan nan nan
22 24 24 22 23 23 22 22 nan nan nan nan 18 18 nan nan nan nan nan nan nan nan nan nan nan nan nan nan nan nan nan nan nan nan nan nan nan nan nan nan nan nan
23 25 26 25 25 25 25 23 20 nan nan nan 19 nan nan nan nan nan nan nan nan nan nan nan nan nan nan nan nan nan nan nan nan nan nan nan nan nan nan nan nan nan
24 26 28 29 28 27 25 23 nan nan nan nan nan nan nan nan nan nan nan nan nan nan nan nan nan nan nan nan nan nan nan nan nan nan nan nan nan nan nan nan nan nan
27 28 29 28 28 28 26 23 nan nan nan nan nan nan nan nan nan nan nan nan nan nan nan nan nan nan nan nan nan nan nan nan nan nan nan nan nan nan nan nan nan nan
28 26 26 26 26 26 23 22 nan nan nan nan nan nan nan nan nan nan nan nan nan nan nan nan nan nan nan nan nan nan nan nan nan nan nan nan nan nan nan nan nan nan
28 25 26 25 25 24 23 nan nan nan nan nan nan nan nan nan nan nan nan nan nan nan nan nan nan nan nan nan nan nan nan nan nan nan nan nan nan nan nan nan nan nan
28 27 26 25 25 23 22 nan nan nan nan nan nan nan nan nan nan nan nan nan nan nan nan nan nan nan nan nan nan nan nan nan nan nan nan nan nan nan nan nan nan nan
28 26 24 24 23 22 21 21 nan nan nan nan nan nan nan nan nan nan nan nan nan nan nan nan nan nan nan nan nan nan nan nan nan nan nan nan nan nan nan nan nan nan
22 20 18 20 20 20 19 21 21 nan nan nan nan nan nan nan nan nan nan nan nan nan nan nan nan nan nan nan nan nan nan nan nan nan nan nan nan nan nan nan nan nan
17 17 17 17 19 21 20 20 23 nan nan nan nan nan nan nan nan nan nan nan nan nan nan nan nan nan nan nan nan nan nan nan nan nan nan nan nan nan nan nan nan nan
19 19 18 19 19 20 21 21 22 22 nan nan nan nan nan nan nan nan nan nan nan nan nan nan nan nan nan nan nan nan nan nan nan nan nan nan nan nan nan nan nan nan
20 19 19 19 19 20 21 21 21 21 21 nan nan nan nan nan nan nan nan nan nan nan nan nan nan nan nan nan nan nan 22 22 22 24 24 24 nan nan nan nan nan nan
20 20 20 21 23 23 22 22 22 23 20 20 nan nan 24 nan nan nan nan nan nan nan nan nan nan nan nan nan nan 22 23 24 25 26 26 27 26 26 27 28 29 29
23 22 22 25 24 23 23 22 22 23 23 21 21 nan nan nan nan nan 22 nan nan nan nan nan nan nan nan 23 23 25 26 28 29 29 29 29 29 28 28 28 30 31
25 23 24 23 24 23 22 20 23 23 23 22 21 21 nan nan nan nan nan 24 25 27 27 28 28 27 31 31 28 27 29 30 32 32 32 31 30 29 29 30 30 31
27 26 26 25 26 26 24 25 25 25 25 23 24 24 25 26 nan nan nan nan 28 29 29 30 31 34 40 36 35 32 31 33 34 34 33 32 31 31 30 31 32 29
30 29 28 29 29 30 30 29 29 29 29 28 28 28 29 30 29 28 29 30 31 31 31 32 34 43 42 41 38 36 33 35 36 35 35 34 33 32 33 32 34 34
32 33 34 34 34 33 34 33 33 33 33 33 33 34 33 33 33 32 32 32 33 32 32 34 39 41 43 41 40 nan 35 37 38 37 36 36 33 32 31 33 41 38
nan 38 37 37 37 36 36 36 36 36 36 36 36 38 35 35 36 36 35 35 35 35 35 34 44 42 43 44 41 nan nan nan 36 36 36 35 34 34 33 32 40 40
nan nan nan 41 40 40 38 38 37 38 39 39 40 41 40 41 40 39 39 38 37 36 35 36 41 47 44 44 42 nan nan nan 38 38 38 37 39 38 nan 35 34 43
nan nan nan nan nan 42 40 39 38 38 37 38 39 40 40 40 39 37 37 38 38 38 35 37 41 49 46 46 45 44 46 nan 41 41 41 41 41 42 42 41 41 42
nan nan nan nan nan nan nan 41 40 39 38 38 36 36 35 35 36 36 36 36 37 39 40 41 47 47 47 49 50 nan nan nan 43 45 44 44 44 42 42 nan 46 47
nan nan nan nan nan nan nan nan 44 44 44 44 41 41 40 41 42 42 42 42 42 43 43 44 48 52 50 50 51 nan nan 44 45 47 46 nan 45 44 45 50 nan nan
nan nan nan nan nan nan nan nan nan nan nan 47 47 46 45 46 47 47 48 48 48 47 53 50 53 51 49 50 49 48 44 43 45 43 nan nan nan 49 53 nan nan nan
nan nan nan nan nan nan nan nan nan nan nan nan 48 48 48 49 50 51 52 53 53 53 55 54 50 51 49 48 48 46 43 43 42 nan 46 49 nan 53 nan nan nan nan
Wind_Direction
268 271 274 277 nan 282 284 nan nan nan nan nan 299 298 295 nan nan nan nan nan nan nan nan nan nan nan nan nan nan nan nan nan nan nan nan 269 268 269 269 nan nan nan
272 271 272 273 274 278 281 285 nan nan nan nan 300 299 nan nan nan nan nan nan nan nan nan nan nan nan nan nan nan nan nan nan nan nan nan nan nan nan nan nan nan nan
271 269 270 272 272 276 280 285 287 nan nan nan 294 nan nan nan nan nan nan nan nan nan nan nan nan nan nan nan nan nan nan nan nan nan nan nan nan nan nan nan nan nan
272 271 270 268 269 274 277 282 nan nan nan nan nan nan nan nan nan nan nan nan nan nan nan nan nan nan nan nan nan nan nan nan nan nan nan nan nan nan nan nan nan nan
272 272 268 267 268 271 273 275 nan nan nan nan nan nan nan nan nan nan nan nan nan nan nan nan nan nan nan nan nan nan nan nan nan nan nan nan nan nan nan nan nan nan
269 271 270 269 269 270 270 271 nan nan nan nan nan nan nan nan nan nan nan nan nan nan nan nan nan nan nan nan nan nan nan nan nan nan nan nan nan nan nan nan nan nan
270 271 268 266 265 266 267 nan nan nan nan nan nan nan nan nan nan nan nan nan nan nan nan nan nan nan nan nan nan nan nan nan nan nan nan nan nan nan nan nan nan nan
268 267 264 262 260 263 265 nan nan nan nan nan nan nan nan nan nan nan nan nan nan nan nan nan nan nan nan nan nan nan nan nan nan nan nan nan nan nan nan nan nan nan
264 263 259 261 260 260 264 266 nan nan nan nan nan nan nan nan nan nan nan nan nan nan nan nan nan nan nan nan nan nan nan nan nan nan nan nan nan nan nan nan nan nan
254 252 254 253 255 256 258 266 265 nan nan nan nan nan nan nan nan nan nan nan nan nan nan nan nan nan nan nan nan nan nan nan nan nan nan nan nan nan nan nan nan nan
237 239 242 244 250 251 254 257 264 nan nan nan nan nan nan nan nan nan nan nan nan nan nan nan nan nan nan nan nan nan nan nan nan nan nan nan nan nan nan nan nan nan
231 234 239 246 247 250 254 254 261 265 nan nan nan nan nan nan nan nan nan nan nan nan nan nan nan nan nan nan nan nan nan nan nan nan nan nan nan nan nan nan nan nan
238 237 240 248 252 253 253 256 257 262 264 nan nan nan nan nan nan nan nan nan nan nan nan nan nan nan nan nan nan nan 292 295 294 294 295 291 nan nan nan nan nan nan
237 241 246 254 253 257 259 258 260 262 263 265 nan nan 279 nan nan nan nan nan nan nan nan nan nan nan nan nan nan 292 289 291 293 293 294 293 291 292 289 289 289 287
243 245 249 250 254 253 257 264 260 263 268 268 271 nan nan nan nan nan 283 nan nan nan nan nan nan nan nan 293 293 291 289 289 291 292 292 293 294 294 292 292 291 288
252 251 255 262 264 265 269 272 269 267 267 271 272 273 nan nan nan nan nan 284 285 288 291 293 292 292 283 281 261 281 287 287 287 290 291 291 292 293 295 295 293 288
255 255 255 256 262 267 270 272 273 270 266 266 270 272 274 273 nan nan nan nan 287 289 292 290 290 287 284 284 280 269 283 285 285 286 289 289 291 290 291 293 285 278
255 257 255 257 258 260 263 263 265 267 267 266 267 268 270 272 274 276 278 280 281 286 289 289 287 284 291 288 286 283 274 279 285 285 287 289 289 291 290 288 287 276
253 252 253 256 257 258 261 261 263 265 267 269 271 268 266 272 276 276 276 278 280 282 284 284 281 276 288 284 283 nan 280 274 284 286 287 288 288 286 285 279 274 270
nan 252 254 256 257 258 260 261 263 265 265 267 269 273 276 275 276 278 278 279 280 282 282 280 277 286 289 289 286 nan nan nan 280 280 283 283 282 276 269 272 273 273
nan nan nan 255 259 262 262 263 263 263 266 267 267 270 272 273 274 276 277 279 281 279 279 281 280 289 290 291 290 nan nan nan 277 276 276 274 265 268 nan 263 268 272
nan nan nan nan nan 264 265 264 267 269 269 269 269 268 268 270 272 272 274 276 276 276 277 280 280 290 292 293 290 284 280 nan 278 277 276 275 275 276 275 273 271 271
nan nan nan nan nan nan nan 267 269 271 272 271 270 267 267 269 271 274 274 274 275 275 278 282 280 284 289 289 285 nan nan nan 277 276 274 276 275 275 273 nan 265 258
nan nan nan nan nan nan nan nan 268 272 275 275 272 270 270 269 272 274 275 275 275 275 277 280 281 281 285 284 283 nan nan 275 276 275 277 nan 273 271 271 269 nan nan
nan nan nan nan nan nan nan nan nan nan nan 275 276 274 274 274 275 276 277 276 276 277 277 280 276 277 280 281 282 283 278 271 273 275 nan nan nan 272 270 nan nan nan
nan nan nan nan nan nan nan nan nan nan nan nan 274 276 276 277 276 276 278 278 278 280 280 277 276 275 278 279 279 278 280 269 268 nan 272 274 nan 274 nan nan nan nan